Location: Unspecified
(0.0000°N, 0.0000°E)
Time: 16:59:41
(UTC+00:00)

Vanguard 3 - Pass Details

Date: 12 October 2022
Orbit: 508 x 3242 km, 33.3° (Epoch: 21 September)

Event Time Altitude Azimuth Distance (km) Brightness Sun altitude
Rises 18:20:09 0° 243° (WSW) 6,473 13.3 -8.4°
Reaches altitude 10° 18:26:42 10° 226° (SW) 5,841 12.4 -10.0°
Maximum altitude 18:38:13 19° 188° (S) 5,454 11.5 -12.8°
Drops below altitude 10° 18:50:11 10° 150° (SSE) 6,047 11.3 -15.8°
Sets 18:57:16 0° 132° (SE) 6,766 11.5 -17.5°
